[[{"header":{"parameterUnit":"m.s-1","parameterCategory":1,"la1":30.2992,"la2":30.254,"lo1":-89.0895,"lo2":-89.0443,"dy":0.0025,"dx":0.0025,"nx":19,"ny":19,"refTime":"2026-05-21T09:00:00:Z","depth":0,"parameterNumber":2,"parameterNumberName":"U-component_of_WINDS"},"data":[0,0,0,-0.7639,-0.7639,-0.7649,-0.7649,-0.7666,-0.7666,0,0,0,0,0,0,0,0,0,0,0,-0.7637,-0.7637,-0.7639,-0.7639,-0.7649,-0.7649,-0.7666,-0.7666,0,0,0,0,0,0,0,0,0,0,0,-0.7637,-0.7637,-0.7637,-0.7639,-0.7649,-0.7649,-0.7666,-0.7657,0,0,0,0,0,0,0,0,0,0,-0.7647,-0.7646,-0.7637,-0.7637,-0.7639,-0.7649,-0.7649,-0.7657,-0.7658,-0.7662,0,-0.7666,0,-0.7666,-0.7667,-0.7667,0,0,0,-0.7639,-0.7645,-0.7647,-0.7637,-0.7639,-0.7649,-0.7645,-0.7657,-0.7658,-0.7664,-0.7666,-0.7666,-0.7666,-0.7667,-0.7667,-0.7693,-0.7693,0,0,-0.7638,-0.764,-0.7646,-0.7647,-0.7645,-0.7644,-0.7645,-0.7658,-0.7661,-0.7666,-0.7667,-0.7666,-0.7667,-0.7667,-0.7692,-0.7693,0,0,0,-0.7637,-0.764,-0.7641,-0.7647,-0.7648,-0.7644,-0.7645,-0.766,-0.766,-0.7667,-0.7667,-0.7667,-0.7668,-0.7692,-0.7692,-0.7701,0,0,0,-0.7636,-0.7639,-0.764,-0.7642,-0.7648,-0.7654,-0.7648,-0.766,-0.7661,-0.7666,-0.7667,-0.7668,-0.7692,-0.7692,-0.77,-0.7705,0,0,0,-0.7636,-0.7639,-0.764,-0.7642,-0.7646,-0.7654,-0.7655,-0.766,-0.7661,-0.7667,-0.7668,-0.7692,-0.7692,-0.77,-0.7705,-0.7713,0,0,0,-0.7637,-0.7649,-0.764,-0.7654,-0.7646,-0.7658,-0.7655,-0.7664,-0.7671,-0.7667,-0.7692,-0.7692,-0.77,-0.7704,-0.7712,-0.7721,-0.7724,0,0,-0.7653,-0.7651,-0.7658,-0.7651,-0.7665,-0.7657,-0.7672,-0.7677,-0.7677,-0.7688,-0.7688,-0.7701,-0.7704,-0.7713,-0.774,-0.7743,0,0,0,-0.7664,-0.767,-0.7673,-0.7678,-0.7681,-0.7684,-0.7686,-0.7687,-0.7696,-0.7682,-0.7705,-0.7707,-0.7712,-0.7716,-0.7719,-0.7723,-0.7694,-0.7694,-0.7694,-0.7691,-0.7688,-0.7701,-0.7699,-0.7704,-0.7705,-0.7709,-0.7711,-0.7708,-0.7714,-0.7718,-0.7734,-0.7739,-0.7741,-0.7745,-0.7721,-0.7721,-0.7721,-0.7721,-0.7716,-0.7724,-0.7717,-0.7727,-0.7724,-0.7733,-0.7733,-0.7731,-0.7739,-0.7731,-0.7736,-0.7729,-0.7744,-0.7748,-0.7721,-0.7721,-0.7721,-0.7721,-0.7721,-0.7735,-0.7738,-0.7738,-0.7745,-0.775,-0.7748,-0.7755,-0.7752,-0.775,-0.7754,-0.7758,-0.7757,-0.7758,-0.7755,-0.7755,-0.7755,-0.7755,-0.7755,-0.7755,-0.7756,-0.7755,-0.7761,-0.7764,-0.7766,-0.7769,-0.7768,-0.7771,-0.7773,-0.7771,-0.7771,-0.7768,-0.7745,-0.774,-0.7756,-0.7756,-0.7756,-0.7756,-0.7756,-0.7785,-0.7777,-0.7787,-0.7789,-0.7791,-0.7796,-0.7791,-0.7796,-0.7798,-0.7802,-0.7797,-0.778,-0.7778,-0.7776,-0.7773,-0.7796,-0.7796,-0.7796,-0.7796,-0.7803,-0.78,-0.7809,-0.7812,-0.7815,-0.7811,-0.7822,-0.7821,-0.7819,-0.782,-0.7816,-0.781,-0.7808,-0.7807,-0.7805,-0.7801,-0.7832,-0.7832,-0.7832,-0.7821,-0.7818,-0.7829,-0.7825,-0.7826,-0.7826,-0.7837,-0.7842,-0.7838,-0.7833,-0.7821,-0.782,-0.781,-0.7806,-0.7804,-0.78,-0.7793,0,0]},{"header":{"parameterUnit":"m.s-1","parameterCategory":1,"la1":30.2992,"la2":30.254,"lo1":-89.0895,"lo2":-89.0443,"dy":0.0025,"dx":0.0025,"nx":19,"ny":19,"refTime":"2026-05-21T09:00:00:Z","depth":0,"parameterNumber":3,"parameterNumberName":"V-component_of_WINDS"},"data":[0,0,0,5.9265,5.9265,5.9264,5.9264,5.9289,5.929,0,0,0,0,0,0,0,0,0,0,0,5.9283,5.9283,5.9265,5.9265,5.9264,5.9264,5.9289,5.929,0,0,0,0,0,0,0,0,0,0,0,5.9282,5.9283,5.9284,5.9265,5.9264,5.9264,5.9289,5.928,0,0,0,0,0,0,0,0,0,0,5.9276,5.931,5.9283,5.9284,5.9266,5.9264,5.9264,5.9279,5.9281,5.9301,0,5.9326,0,5.9308,5.9293,5.9293,0,0,0,5.9252,5.9309,5.9293,5.9284,5.9266,5.9264,5.9261,5.928,5.9281,5.9303,5.9326,5.9326,5.9309,5.9293,5.9294,5.9458,5.9459,0,0,5.9252,5.9292,5.9292,5.9295,5.9298,5.9261,5.9261,5.928,5.9307,5.9326,5.9326,5.9309,5.9294,5.9294,5.9456,5.9458,0,0,0,5.9261,5.9293,5.9275,5.9295,5.9293,5.9262,5.9261,5.9306,5.9297,5.9326,5.9309,5.9294,5.9295,5.9455,5.9457,5.9562,0,0,0,5.9261,5.9298,5.9276,5.93,5.9293,5.93,5.9287,5.9296,5.9296,5.9309,5.9294,5.9295,5.9453,5.9456,5.9556,5.9605,0,0,0,5.9277,5.9299,5.9305,5.9302,5.9303,5.9298,5.929,5.9295,5.9287,5.9293,5.9295,5.9452,5.9455,5.955,5.9596,5.9657,0,0,0,5.9305,5.94,5.9308,5.9407,5.9304,5.9364,5.9289,5.9333,5.9351,5.9294,5.9453,5.9457,5.9549,5.959,5.9652,5.9715,5.9746,0,0,5.9447,5.9419,5.9474,5.9391,5.9478,5.9361,5.9463,5.9443,5.9407,5.9443,5.9446,5.9558,5.9595,5.9656,5.9908,5.9933,0,0,0,5.9532,5.9572,5.9586,5.9605,5.9592,5.9583,5.9542,5.9534,5.9562,5.9434,5.9597,5.9618,5.9652,5.968,5.9701,5.9727,5.9472,5.9472,5.9472,5.9789,5.9737,5.9824,5.9773,5.9792,5.9748,5.9758,5.9739,5.9683,5.9723,5.9732,5.9891,5.9926,5.9942,5.9969,5.9763,5.9764,5.9764,5.9764,5.9989,6.0036,5.9958,6.0014,5.9959,6.0005,5.9966,5.9924,5.9957,5.9881,5.9908,5.9826,5.997,5.9991,5.9772,5.977,5.9769,5.9769,5.9768,6.015,6.0163,6.0151,6.0171,6.0192,6.0137,6.0172,6.0121,6.0073,6.0101,6.0103,6.0101,6.0091,6.0106,6.0107,6.0107,6.0108,6.0108,6.0108,6.032,6.0303,6.0339,6.0331,6.0335,6.0334,6.029,6.0292,6.0281,6.024,6.024,6.0178,5.9995,5.9948,6.0117,6.0115,6.0114,6.0113,6.0113,6.0538,6.048,6.0536,6.054,6.0525,6.0548,6.0482,6.049,6.0485,6.0503,6.0435,6.0309,6.0276,6.0259,6.022,6.0448,6.0448,6.0448,6.0448,6.0672,6.0651,6.0694,6.0703,6.0707,6.0652,6.0715,6.0681,6.0636,6.0629,6.0589,6.0533,6.0518,6.0494,6.0472,6.0434,6.0712,6.0712,6.0713,6.0802,6.0778,6.0842,6.0797,6.0781,6.0768,6.0824,6.0836,6.0774,6.0722,6.0621,6.061,6.052,6.0494,6.0439,6.0406,6.0336,0,0]}]]